Home   Weather   Norwich   Past weeks
Flag for United Kingdom

Past Weather in Norwich, England, United Kingdom — Yesterday and Last 2 Weeks

Now
46 °F

Cool.


Feels Like: 44 °F
Forecast: 66 / 49 °F
Wind: 5 mph from Southwest

Location: Norwich Weather Centre

Current Time: May 23, 2019 at 4:06:12 am

Latest Report: May 23, 2019 at 3:20 am


Visibility: N/A

Pressure: 30.01 "Hg

Humidity: 93%

Dew Point: 45 °F

Location of NorwichLocation

Past Weather in Norwich — Graph

°F

Norwich Temperature Yesterday

Maximum temperature yesterday: 68 °F (at 3:50 pm)
Minimum temperature yesterday: 45 °F (at 3:50 am)
Average temperature yesterday: 57 °F

High & Low Weather Summary for the Past Weeks

 TemperatureHumidityPressure
High68 °F (May 22, 3:50 pm)100% (May 8, 11:50 am)30.74 "Hg (May 8, 11:50 am)
Low36 °F (May 12, 5:50 am)35% (May 22, 3:50 pm)29.24 "Hg (May 8, 2:50 pm)
Average51 °F81%30.04 "Hg
* Reported May 8 2:20 am — May 23 2:50 am, Norwich. Weather by CustomWeather, © 2019

Note: Actual official high and low records may vary slightly from our data, if they occured in-between our weather recording intervals... More about our weather records

Advertising

Norwich Weather History for the Previous 24 Hours

Scroll right to see more
 ConditionsComfort  
Time TempWeatherWind HumidityBarometerVisibility
2:50 am
Thu, May 23
48 °FCool.5 mph94%30.04 "HgN/A
2:20 am52 °FCool.3 mph88%30.04 "HgN/A
1:50 am52 °FCool.5 mph88%30.04 "HgN/A
1:20 am52 °FCool.7 mph88%30.04 "HgN/A
12:50 am54 °FCool.8 mph82%30.04 "HgN/A
12:20 am54 °FCool.7 mph77%30.04 "HgN/A
11:50 pm
Wed, May 22
54 °FCool.8 mph77%30.04 "HgN/A
11:20 pm52 °FCool.8 mph82%30.04 "HgN/A
10:50 pm54 °FClear.9 mph77%30.07 "Hg10 mi
10:20 pm54 °FClear.8 mph77%30.07 "Hg10 mi
9:50 pm55 °FClear.9 mph72%30.07 "Hg10 mi
9:20 pm57 °FClear.9 mph67%30.07 "Hg10 mi
8:50 pm59 °FSunny.9 mph63%30.07 "Hg10 mi
8:20 pm59 °FSunny.6 mph55%30.04 "Hg10 mi
7:50 pm63 °FSunny.8 mph45%30.04 "Hg10 mi
7:20 pm64 °FPassing clouds.10 mph40%30.04 "HgN/A
6:50 pm66 °FSunny.13 mph40%30.07 "Hg10 mi
6:20 pm66 °FPassing clouds.12 mph40%30.07 "HgN/A
5:50 pm66 °FSunny.10 mph40%30.07 "Hg10 mi
5:20 pm68 °FPassing clouds.13 mph40%30.07 "HgN/A
4:50 pm66 °FScattered clouds.13 mph40%30.07 "HgN/A
4:20 pm66 °FScattered clouds.10 mph40%30.07 "HgN/A
3:50 pm68 °FPassing clouds.10 mph35%30.07 "HgN/A
3:20 pm64 °FPassing clouds.9 mph43%30.07 "HgN/A
2:50 pm66 °FPassing clouds.12 mph43%30.09 "HgN/A
2:20 pm66 °FPassing clouds.10 mph40%30.09 "HgN/A
1:50 pm64 °FPassing clouds.9 mph43%30.09 "HgN/A
1:20 pm66 °FPassing clouds.12 mph40%30.09 "HgN/A
12:50 pm64 °FPassing clouds.8 mph43%30.09 "HgN/A
12:20 pm64 °FPassing clouds.10 mph40%30.09 "HgN/A
11:50 am63 °FPassing clouds.8 mph45%30.09 "HgN/A
11:20 am63 °FSunny.6 mph42%30.09 "Hg10 mi
10:50 am61 °FPassing clouds.7 mph48%30.12 "HgN/A
10:20 am57 °FPassing clouds.5 mph55%30.12 "HgN/A
9:50 am57 °FPassing clouds.7 mph59%30.09 "HgN/A
9:20 am55 °FPassing clouds.6 mph67%30.09 "HgN/A
8:50 am55 °FPassing clouds.5 mph67%30.09 "HgN/A
8:20 am54 °FPassing clouds.6 mph72%30.09 "HgN/A
7:50 am54 °FPassing clouds.6 mph77%30.09 "HgN/A
7:20 am52 °FPassing clouds.7 mph82%30.09 "HgN/A
6:50 am50 °FPassing clouds.8 mph88%30.09 "HgN/A
6:20 am48 °FSunny.6 mph87%30.09 "Hg10 mi
5:50 am46 °FSunny.5 mph93%30.09 "Hg10 mi
5:20 am46 °FCool.7 mph93%30.09 "HgN/A
4:50 am46 °FCool.7 mph93%30.09 "HgN/A
4:20 am46 °FCool.7 mph100%30.07 "Hg4 mi
Weather by CustomWeather, © 2019

See weather overview